Theta_e
281 281 281 281 281 281 281 281 281 281 282 282 283 283 283 283 283 284 284 284 284 284 284 284 284 285 285 286 287 287 287 287 288 288 289 289 289 290 291 293 294 292 292 292 293 292 292 292 292 292 291 291 292 291 291 291 290 290 290 290 290 290 290 291 291 291 292 292 293 293 294 294 295 296 297 298 298 300 300 301 303 305 307 310 313 316 318 319 320 320 319 319 317 316 316 314 313 313 314 316 317 318 319
281 280 280 280 280 280 281 281 281 281 282 282 283 283 283 283 283 283 283 283 283 283 283 283 283 284 285 286 286 286 286 286 287 288 288 288 288 289 290 291 292 292 291 291 292 292 292 291 291 291 290 290 291 291 291 291 290 290 290 289 289 289 290 290 290 291 291 292 292 292 293 293 294 295 296 297 297 298 298 300 301 303 303 303 304 305 307 310 314 317 319 319 319 317 317 315 314 313 313 313 315 316 317
280 280 280 280 280 280 280 281 281 281 281 281 282 283 283 282 282 283 283 283 283 283 283 283 283 284 285 286 286 286 285 286 287 287 287 288 288 289 289 290 291 292 291 291 291 291 291 291 290 290 290 290 290 290 290 290 290 290 290 289 289 289 289 290 290 290 291 291 291 292 292 292 292 293 294 295 296 297 297 298 299 301 302 302 302 303 304 305 306 307 313 317 319 318 317 316 315 314 313 312 313 315 316
279 279 279 279 279 279 280 280 281 282 281 281 282 283 282 282 282 282 283 283 283 283 283 283 283 284 285 285 285 285 285 286 287 287 287 288 288 289 289 289 290 291 291 291 291 291 290 290 289 289 289 290 290 290 290 290 290 290 289 289 289 289 289 289 289 289 290 290 291 291 291 291 291 292 293 294 294 295 296 297 298 299 301 301 301 301 302 302 303 303 304 308 312 317 317 316 316 315 313 312 313 314 316
278 278 279 279 279 279 280 280 280 281 281 282 282 282 282 282 282 282 282 283 283 283 283 283 283 283 284 285 285 285 285 287 287 286 286 287 288 289 289 289 290 291 291 291 291 291 291 290 290 290 289 289 290 290 289 290 290 289 289 289 289 289 289 289 289 289 289 290 290 290 290 290 291 291 292 293 293 294 295 296 297 298 299 299 299 299 299 300 300 301 302 302 304 309 314 316 315 313 312 311 312 313 314
278 278 278 278 279 279 279 280 280 280 281 282 282 282 282 282 282 282 281 282 282 282 282 282 283 283 284 285 285 285 285 286 287 286 286 287 288 288 288 289 289 290 290 291 291 290 290 290 290 290 289 289 289 289 289 289 289 289 289 289 289 289 288 288 288 289 289 289 289 290 290 290 290 290 291 292 293 294 294 295 295 297 297 297 298 298 298 298 298 299 300 301 302 304 308 312 313 312 311 311 311 312 313
278 278 279 279 278 279 279 279 280 280 281 281 282 282 281 281 281 280 281 281 281 282 282 282 282 283 284 284 284 284 285 286 287 286 287 287 288 288 288 288 288 289 290 290 290 289 289 289 289 289 289 289 288 288 288 288 288 289 289 289 289 289 289 288 288 288 288 289 289 289 289 289 289 290 290 291 292 293 293 294 295 295 296 296 297 296 296 296 297 297 298 298 300 302 303 307 311 312 311 310 309 309 310
278 278 278 278 278 278 279 279 280 280 281 281 281 281 280 280 280 280 280 280 281 281 281 282 282 282 283 284 284 284 285 286 286 285 286 287 287 287 286 287 287 288 288 288 289 289 288 288 288 288 287 287 287 288 288 288 288 288 288 288 289 289 288 288 288 288 288 288 288 288 289 289 289 289 290 290 291 292 292 293 294 295 295 296 296 296 295 295 296 296 296 297 298 299 301 303 306 312 311 309 307 307 308
277 277 277 278 278 278 279 280 280 279 280 280 280 280 280 280 280 279 280 280 281 281 281 281 282 282 283 283 284 283 284 284 285 285 286 287 286 285 285 285 286 286 286 286 286 286 286 286 286 285 285 285 286 287 288 288 287 287 288 288 289 289 288 288 288 287 288 288 288 288 288 288 288 289 289 289 290 291 292 292 293 294 294 295 295 295 295 295 295 296 296 297 297 298 299 300 302 306 309 308 307 306 306
277 278 278 278 278 278 278 279 279 279 279 280 280 279 280 280 279 279 279 280 280 281 281 282 282 282 282 282 282 282 283 284 284 285 286 286 286 285 284 284 284 284 284 284 284 283 284 284 284 284 284 285 285 286 286 286 286 287 287 288 288 288 288 288 287 287 287 287 288 288 288 288 288 288 288 288 289 290 291 292 292 293 294 294 294 294 294 295 295 295 295 295 296 297 298 299 300 301 304 306 308 306 304
278 278 278 278 278 277 278 278 278 278 279 279 279 279 279 279 279 279 279 279 280 281 281 281 281 281 281 282 282 282 282 283 284 285 286 286 285 285 284 284 283 283 283 283 283 283 283 283 283 284 284 285 285 285 286 286 286 287 287 287 288 288 288 287 287 287 287 287 287 287 288 288 288 287 288 288 289 289 290 291 292 292 293 293 293 293 293 293 293 294 294 294 295 296 297 298 298 299 300 304 308 305 302
278 278 278 278 278 278 278 278 278 278 278 279 279 279 279 279 279 279 279 279 280 281 281 281 281 280 281 282 282 281 282 282 283 284 285 285 284 284 284 283 283 283 283 283 283 283 283 283 284 285 285 286 286 286 286 287 287 286 287 287 287 287 287 287 287 286 286 286 286 287 287 287 287 287 287 287 288 288 289 290 291 292 292 292 292 292 292 292 292 293 293 294 295 295 295 296 297 298 298 301 304 302 300
278 278 278 278 278 278 279 278 278 278 278 279 279 279 279 279 279 279 279 279 279 280 280 281 281 280 282 282 282 281 282 282 282 282 284 284 284 284 284 283 283 283 284 284 283 283 283 283 284 285 285 286 286 286 287 286 286 286 286 286 286 287 287 287 287 286 286 286 286 286 286 287 287 287 287 287 287 288 289 289 290 291 291 291 291 291 291 291 292 292 293 293 294 294 294 295 295 296 296 297 298 299 297
278 278 278 278 279 279 279 279 278 278 278 278 278 279 279 279 279 279 278 278 279 279 280 281 281 280 281 282 282 280 281 282 282 282 283 284 284 284 283 283 283 283 284 283 283 283 283 283 284 284 285 285 286 286 286 286 285 285 286 286 286 286 286 286 286 286 285 285 285 285 286 286 287 287 286 286 286 287 287 288 289 290 291 290 290 290 290 290 290 291 291 292 293 293 293 294 294 295 295 295 295 296 295
278 278 278 279 279 279 279 278 278 278 278 278 278 278 278 278 279 278 278 278 279 279 280 281 281 280 280 281 281 280 281 282 283 281 281 282 283 283 283 283 283 283 283 283 283 284 284 284 284 285 285 285 285 285 285 285 285 285 285 285 285 285 285 286 286 286 285 285 284 284 285 285 286 286 286 286 286 286 286 287 288 289 289 289 289 289 289 289 289 289 290 290 291 291 292 292 293 293 294 294 294 295 294
278 278 278 279 279 279 279 278 278 278 278 278 278 278 279 279 279 278 278 279 278 278 279 280 281 280 280 280 280 280 280 281 282 280 280 281 282 283 282 282 282 282 281 282 282 283 284 284 284 284 284 284 284 284 284 284 284 284 284 285 285 285 285 285 285 285 285 284 284 284 284 284 285 286 285 285 285 285 285 286 287 288 288 288 287 287 288 288 288 288 288 289 289 290 290 291 291 292 293 293 294 294 293
278 278 279 279 279 278 278 278 277 277 277 277 277 277 278 279 279 278 279 279 278 278 278 279 280 279 279 279 279 279 279 279 280 279 279 279 280 281 280 280 280 280 280 281 281 282 283 283 283 283 283 283 283 284 284 284 283 283 284 284 284 284 284 284 284 284 284 284 284 283 283 284 284 284 285 285 284 284 284 285 286 287 287 287 286 286 287 287 287 287 287 288 288 289 289 289 290 290 291 292 292 292 292
278 278 278 279 278 278 278 277 276 276 277 277 277 277 277 278 278 278 278 279 278 278 277 278 278 278 279 279 279 279 279 278 278 278 278 278 278 278 279 279 279 279 280 280 280 281 281 282 282 282 282 282 283 283 283 283 283 283 283 283 284 284 284 284 283 283 284 283 283 283 283 283 283 283 284 284 284 284 284 284 285 287 286 285 285 285 285 286 286 286 287 287 287 288 288 288 288 289 289 290 291 291 291
278 278 278 277 277 277 276 276 276 276 276 276 276 277 277 277 278 278 278 278 278 278 277 277 277 278 279 279 279 279 278 278 278 277 277 277 277 277 278 278 278 279 279 279 280 280 280 281 281 281 281 282 282 282 282 282 282 282 282 283 283 283 283 283 283 283 283 283 283 282 282 282 282 283 283 283 283 284 284 284 284 285 284 284 284 284 285 285 285 286 286 286 287 287 287 287 287 287 288 289 289 289 290
278 278 276 276 276 276 275 275 275 275 275 276 276 276 276 277 277 278 278 278 278 278 277 276 277 278 278 279 279 279 278 278 277 277 277 276 276 276 277 277 278 279 279 279 280 280 280 280 281 281 281 281 281 282 281 281 281 281 282 282 283 283 283 283 282 282 282 282 282 282 282 282 282 282 282 283 283 283 283 283 283 283 283 283 283 283 284 284 285 285 285 285 286 286 286 286 286 287 287 287 287 288 288
277 277 276 275 275 275 275 275 275 275 275 275 275 275 276 276 277 277 277 277 277 277 276 276 276 277 278 278 279 278 278 278 277 277 277 276 276 276 276 277 278 278 279 279 280 280 280 280 281 281 281 281 281 282 281 281 281 281 281 282 282 282 282 282 282 281 281 281 281 281 281 281 281 281 281 282 282 282 282 282 283 282 283 283 283 283 283 283 284 284 284 284 284 284 284 285 285 285 286 286 286 286 287
276 275 275 274 274 274 274 274 275 275 275 275 275 275 275 276 276 276 276 276 277 276 276 275 275 276 277 278 278 278 278 277 277 277 276 276 276 276 276 277 277 278 279 280 280 280 280 280 281 281 281 282 282 282 281 281 281 281 281 281 281 281 281 281 280 280 280 280 280 280 280 280 281 281 280 281 281 281 281 281 282 282 282 282 282 282 282 282 283 283 283 283 283 283 283 283 284 284 284 285 285 285 285
275 275 274 274 274 274 274 274 274 274 274 274 274 274 275 275 276 276 276 276 276 276 276 275 275 275 276 277 277 278 277 277 277 276 276 276 276 276 276 277 278 278 279 280 280 281 281 281 281 282 282 282 282 282 282 281 281 281 280 280 280 280 280 280 280 279 279 279 279 280 280 280 280 280 280 280 280 280 281 281 281 281 281 282 282 282 282 282 282 282 282 282 282 282 282 282 282 283 283 284 284 284 284
275 274 274 273 273 273 273 273 273 273 273 273 274 274 274 274 275 275 275 275 275 275 275 275 275 274 275 276 277 277 277 277 276 276 275 275 276 276 276 277 278 278 279 280 280 281 281 281 282 282 282 282 282 282 282 282 281 281 280 280 280 280 280 280 280 279 279 279 279 280 280 280 280 280 280 280 280 280 280 280 280 281 281 281 281 281 281 281 281 281 281 281 281 281 281 281 282 282 282 283 283 283 283
273 272 272 272 272 271 271 271 271 271 272 272 273 273 273 273 274 274 274 274 274 274 274 274 274 273 275 275 276 276 277 277 276 276 275 275 275 276 276 276 277 278 279 280 280 281 281 281 281 282 282 282 282 282 282 281 281 281 280 280 280 280 280 280 280 279 279 279 279 279 279 279 279 279 279 279 279 279 279 279 280 280 280 280 281 281 281 281 280 280 280 281 280 280 280 280 281 281 282 282 282 282 282
271 270 269 269 269 269 269 269 269 269 270 271 272 272 272 273 273 273 273 273 274 274 274 273 273 273 274 274 275 275 276 276 276 276 275 275 275 276 276 276 277 278 278 279 280 280 281 281 281 282 282 282 282 282 282 281 281 281 280 280 280 280 280 280 280 280 279 279 279 279 279 279 279 279 279 279 279 279 279 279 279 279 279 279 280 280 280 280 280 280 280 280 280 280 280 280 280 280 280 281 281 281 281
270 269 268 268 267 267 267 268 268 269 269 270 271 271 272 272 272 272 272 272 273 274 273 272 272 273 273 273 274 275 276 276 276 275 275 275 275 276 276 277 277 277 278 278 279 280 280 281 281 281 281 282 282 282 282 281 281 281 280 280 280 280 279 280 280 279 279 279 279 279 279 279 279 279 279 279 278 278 278 278 278 278 278 279 279 279 279 279 279 279 279 279 279 279 279 279 279 279 280 279 279 279 280
269 269 268 267 267 266 267 267 268 268 269 270 270 270 271 271 272 272 272 272 272 273 272 272 272 273 273 273 274 274 275 276 275 275 275 275 275 276 276 277 277 277 277 278 278 278 279 279 280 280 280 281 281 281 282 281 281 281 280 280 280 279 280 279 279 279 279 279 279 279 279 279 279 279 279 278 278 278 278 278 278 278 278 278 278 278 278 278 278 278 278 278 278 278 278 278 278 279 279 279 279 278 279
268 268 268 268 268 268 267 267 267 267 268 268 269 270 270 271 272 271 271 271 271 271 271 271 271 272 273 273 274 274 275 275 275 275 275 275 275 275 276 276 276 277 277 277 277 277 277 278 279 279 279 280 280 281 281 281 281 281 280 280 280 279 279 279 279 279 279 279 278 278 278 278 278 279 278 278 278 278 278 277 277 277 277 277 277 278 278 278 278 278 278 277 277 277 277 277 277 278 278 278 278 278 278
265 266 267 267 268 268 267 267 267 267 268 269 269 269 270 271 271 271 271 271 271 270 270 270 270 272 272 272 273 273 274 274 274 275 275 275 275 275 275 275 276 276 276 276 277 277 277 277 278 278 279 279 280 280 281 281 281 280 280 280 279 279 279 279 279 279 278 278 278 278 278 278 278 278 278 278 278 277 277 277 277 277 277 277 277 277 277 277 277 277 277 277 277 277 276 277 277 277 277 278 278 278 278
267 266 266 266 267 267 268 268 268 268 267 268 268 269 270 271 271 271 271 271 271 270 270 270 270 271 271 272 272 273 273 273 274 275 274 274 274 274 274 274 275 275 275 276 276 276 276 277 277 278 278 279 279 280 280 280 280 280 280 279 279 279 279 279 279 279 278 278 278 278 278 278 278 278 278 278 277 277 277 277 277 277 277 277 276 277 277 277 277 277 277 276 276 276 276 276 277 277 277 277 277 277 277
266 266 266 266 267 267 268 268 269 269 268 269 270 269 270 270 270 270 270 271 271 271 271 271 271 271 271 272 272 272 273 273 273 274 273 273 273 273 274 274 274 274 274 275 275 275 276 276 277 277 278 278 278 279 279 279 279 279 279 279 279 279 279 279 279 279 278 278 278 277 277 277 277 277 277 277 277 277 277 277 277 276 276 276 276 276 276 276 276 276 276 276 276 276 276 276 276 276 276 276 276 276 277
266 267 267 267 268 267 267 268 268 269 269 270 270 270 270 270 270 270 270 271 271 271 272 272 272 271 271 271 272 272 272 272 273 273 273 272 272 272 273 273 273 273 274 274 274 274 275 275 275 276 277 277 278 278 278 278 278 279 279 278 278 279 278 278 278 278 278 277 277 277 277 277 277 277 277 277 277 277 277 276 276 276 276 276 276 276 276 276 276 276 275 275 275 275 275 275 276 276 276 276 275 275 276
267 267 268 268 267 267 267 268 269 270 271 271 272 272 271 271 270 270 270 271 271 270 271 271 272 272 271 271 271 272 272 271 271 271 271 271 272 272 272 272 273 273 273 273 273 273 274 274 274 275 276 276 276 276 277 277 278 278 278 278 278 278 278 278 278 278 277 277 277 277 277 277 277 277 277 277 277 277 276 276 276 276 276 276 276 276 275 275 275 275 275 275 275 275 275 275 275 275 275 275 275 275 275
268 268 268 268 268 268 268 269 269 270 271 271 271 271 271 270 270 270 270 270 270 270 270 270 271 271 270 270 270 270 271 271 271 270 271 271 271 271 271 272 272 272 272 272 273 273 273 273 273 274 274 275 275 275 275 276 277 278 278 278 278 278 278 278 278 277 277 277 277 277 276 276 276 276 276 276 276 276 276 276 276 276 275 275 275 275 275 275 275 275 274 274 274 274 274 274 275 275 275 275 275 275 275
268 268 267 268 269 270 270 270 270 270 270 270 270 270 269 269 269 269 270 270 270 270 270 270 270 270 270 270 270 270 270 270 270 270 270 270 270 270 270 270 271 271 271 271 272 272 272 272 273 273 274 274 274 274 274 275 276 276 277 277 277 277 277 277 277 277 277 277 277 276 276 276 276 276 276 276 276 276 276 276 276 275 275 275 275 275 275 275 274 274 274 274 274 274 274 274 274 274 274 274 274 274 274
267 268 269 269 270 271 271 271 271 271 271 270 270 270 269 269 269 269 269 270 270 270 269 269 269 269 269 269 269 269 269 269 269 269 270 270 270 270 270 270 270 270 270 271 271 271 271 271 272 272 273 273 273 273 273 274 274 275 275 275 276 276 276 276 276 276 276 276 276 276 276 276 276 276 276 276 276 276 276 275 275 275 275 275 275 275 275 275 274 274 274 273 273 274 274 274 274 274 274 274 274 274 274
268 269 270 270 271 271 272 272 273 272 272 271 271 270 269 269 269 269 270 270 269 269 269 269 268 268 269 269 269 269 269 269 269 269 269 269 269 269 269 269 269 269 270 270 270 270 270 271 271 272 272 272 272 272 272 272 273 273 274 274 274 274 275 275 275 276 276 276 276 276 275 275 275 275 275 275 275 275 275 275 275 275 275 275 275 275 275 274 274 274 273 273 273 273 273 273 274 274 273 273 273 273 273
269 269 270 271 271 272 272 273 273 272 272 271 270 269 269 268 269 269 269 269 268 268 268 268 268 268 269 269 269 268 268 269 269 269 269 269 269 269 269 269 269 269 269 269 270 270 270 270 271 271 271 272 272 271 271 271 272 272 273 273 273 273 274 274 275 275 275 275 276 275 275 275 275 275 274 274 274 275 275 275 275 275 275 275 275 275 274 274 274 274 273 273 273 273 273 273 273 273 273 273 273 273 272
270 270 271 271 271 271 272 272 272 272 271 270 270 269 269 269 269 269 269 268 267 267 268 268 268 268 268 268 268 268 268 268 268 268 268 268 268 268 268 268 268 269 269 269 269 269 269 270 270 270 271 271 271 271 271 271 271 272 272 272 273 272 273 273 274 273 274 274 275 276 275 274 274 274 274 274 274 274 274 274 274 275 275 275 275 275 274 274 274 274 273 273 273 273 273 273 273 273 273 273 273 272 272
271 271 271 271 271 272 272 272 272 271 271 270 270 270 269 269 269 269 269 268 268 267 267 267 267 268 268 268 268 268 268 268 268 268 268 268 268 268 268 268 268 268 269 269 269 269 269 269 270 270 271 271 271 271 271 271 271 271 271 272 272 272 272 272 273 273 272 273 274 275 275 275 274 274 273 273 273 273 273 273 274 274 274 275 274 274 274 274 274 274 274 273 273 273 273 273 273 273 272 272 272 272 272
271 272 272 272 272 273 272 272 271 271 270 270 270 270 269 269 269 269 269 269 268 268 267 267 267 268 268 267 267 267 268 268 267 267 267 267 267 267 267 268 268 268 268 268 268 268 269 269 269 270 270 270 270 270 270 270 270 271 271 271 272 272 271 272 272 273 272 272 273 274 274 274 274 273 273 272 272 271 271 272 272 273 274 274 274 274 274 274 274 274 274 274 273 273 273 273 272 272 272 272 272 272 271
272 272 272 273 273 272 272 271 270 270 270 269 269 270 270 270 270 270 269 268 268 268 267 267 267 267 267 267 267 267 269 268 267 267 267 266 266 266 267 267 267 267 268 268 268 268 268 268 269 269 270 270 270 270 270 270 270 270 271 271 271 271 271 272 272 272 272 271 272 273 274 274 274 273 272 272 271 271 270 271 271 271 273 274 274 273 273 273 274 274 274 274 273 273 273 273 273 272 272 272 271 271 271
272 272 272 272 272 272 272 271 270 270 270 269 269 270 270 270 270 270 269 268 268 268 268 267 266 266 267 267 267 267 267 267 266 266 266 266 266 265 266 266 266 266 267 267 267 268 268 268 268 269 269 269 269 269 269 270 270 270 270 270 270 270 271 271 271 270 270 271 271 273 274 275 274 273 272 271 270 270 270 270 270 270 272 274 275 274 273 274 274 274 273 273 273 273 273 273 272 272 272 271 271 271 270
272 272 272 272 272 272 272 272 271 270 269 269 269 269 269 269 270 270 269 268 268 268 268 268 267 266 266 267 267 267 266 266 266 266 265 265 265 265 265 265 266 266 266 266 266 267 267 267 268 269 269 269 269 269 269 269 270 270 270 270 269 269 270 270 270 270 270 270 271 272 274 274 273 272 271 271 270 270 270 270 269 270 272 274 275 274 274 274 274 273 273 273 273 272 272 272 272 272 271 271 271 271 270
271 272 272 273 273 273 273 272 271 270 269 269 269 269 269 269 269 269 269 268 268 268 268 268 268 267 266 266 266 266 266 266 265 265 265 265 264 264 265 265 265 265 266 266 266 266 266 267 267 268 268 268 268 268 269 269 269 270 269 269 269 269 269 269 269 269 269 269 270 271 272 272 271 271 271 270 270 269 269 269 269 269 271 273 274 274 274 274 274 273 273 273 272 272 272 272 272 272 271 271 271 271 270
272 272 273 273 274 274 274 272 271 270 270 269 269 269 269 269 268 268 268 268 268 267 268 268 268 267 266 266 266 266 265 265 265 265 265 264 264 264 264 265 265 265 265 265 265 266 266 266 267 268 267 268 268 268 269 269 269 269 269 269 268 268 268 268 268 268 268 269 270 270 270 270 270 270 270 269 269 269 269 269 269 269 271 273 274 273 273 273 273 274 273 273 272 271 271 271 271 271 271 270 270 270 270
273 273 273 274 274 274 274 273 272 270 270 269 269 269 269 269 268 268 268 267 267 267 267 267 267 266 266 266 266 265 265 265 265 265 264 264 264 264 264 264 265 265 265 265 265 265 266 266 267 267 267 268 268 269 269 269 269 269 269 268 268 268 268 268 268 268 269 269 269 269 269 269 269 268 269 269 268 268 268 268 268 268 271 272 274 274 275 275 274 275 274 273 272 271 270 270 270 270 270 270 269 269 270
274 274 274 274 274 275 274 273 271 270 269 269 269 270 269 269 268 268 268 267 267 267 267 267 266 266 266 266 265 265 264 265 265 264 264 263 263 264 264 264 264 264 264 264 264 265 265 265 266 266 267 268 268 269 269 269 269 269 269 268 268 268 268 269 269 269 270 270 270 269 269 268 268 267 267 268 268 268 268 267 268 268 270 272 274 276 278 278 277 276 275 274 273 271 269 269 268 268 268 268 268 269 269
275 275 275 275 275 275 274 273 271 269 269 270 270 270 270 269 269 269 268 268 267 268 268 267 266 266 266 266 265 264 264 265 265 264 264 263 264 264 264 264 264 264 264 264 264 265 265 265 266 267 267 268 268 268 268 269 269 269 268 268 268 269 269 269 270 270 270 270 270 269 269 268 268 267 267 267 267 267 267 267 268 268 269 271 274 278 280 281 280 278 276 274 272 271 269 268 268 268 268 268 268 268 268
275 275 275 275 275 275 275 274 272 270 270 271 271 271 271 271 270 270 269 268 268 268 268 267 266 266 266 266 264 264 264 264 264 264 264 264 264 264 264 264 263 263 263 263 264 265 265 265 266 266 267 267 267 268 268 268 268 268 267 267 268 268 269 269 269 269 269 270 270 268 268 268 267 266 266 266 266 266 266 267 267 268 269 272 275 280 281 281 281 281 278 275 272 270 269 268 268 268 268 268 268 268 268
276 275 275 275 275 274 274 274 273 272 272 272 272 273 272 272 271 270 270 269 268 268 268 267 267 267 266 265 264 263 264 264 264 263 263 263 264 263 263 263 263 262 263 263 264 264 265 265 265 266 266 267 267 267 268 268 268 267 267 267 267 268 268 268 269 268 269 270 270 268 267 267 267 266 266 265 265 265 265 266 267 267 269 272 277 281 281 281 281 281 279 277 274 270 268 268 268 268 268 268 268 268 267
275 275 275 275 274 274 274 274 274 273 273 273 273 273 273 272 271 271 270 270 269 268 268 267 267 267 266 265 264 264 264 264 264 263 263 263 263 263 263 262 262 262 262 263 263 264 265 265 265 265 266 266 267 267 267 267 268 267 267 268 268 267 267 268 268 268 268 268 268 267 267 266 266 266 265 265 265 265 265 266 266 266 267 272 277 282 281 281 281 281 280 278 276 272 269 268 267 267 267 267 267 267 267
276 276 276 275 275 275 275 275 275 275 274 273 273 273 273 272 272 272 271 270 270 269 268 267 267 267 265 264 264 264 264 264 264 263 263 263 262 262 262 262 262 262 262 262 262 263 264 265 265 265 266 266 266 267 267 267 268 268 268 268 268 268 268 267 267 267 268 267 267 267 266 266 265 265 265 264 264 264 265 265 265 266 267 271 276 282 281 281 281 280 279 278 277 274 270 267 266 266 266 266 266 266 266
277 277 277 277 277 277 277 277 276 275 274 273 273 273 273 273 273 272 271 271 271 270 268 268 267 265 264 264 264 264 264 263 263 262 262 262 262 262 262 262 262 262 262 261 261 263 264 265 265 265 266 266 267 267 267 267 267 268 268 268 267 267 267 267 267 267 267 267 266 266 265 265 265 265 264 264 264 264 265 266 266 268 267 269 274 281 281 281 281 280 279 278 277 275 271 268 266 265 265 265 266 266 266
278 278 278 277 277 277 277 276 276 275 274 274 274 274 273 273 273 272 272 272 272 270 269 268 266 265 265 265 265 264 263 263 262 262 263 263 261 261 261 261 261 262 261 261 261 262 264 265 265 265 266 266 267 267 267 267 267 267 267 267 267 266 266 267 268 267 267 266 266 265 265 265 265 265 264 264 263 264 266 267 266 266 265 268 273 280 281 281 280 280 279 278 277 275 272 268 266 265 265 265 265 265 265
278 278 277 277 276 275 274 274 273 273 272 272 272 272 272 272 272 273 274 273 271 268 268 267 266 265 266 265 265 264 263 262 261 261 262 261 260 259 260 260 261 261 260 260 261 262 263 264 265 265 266 266 267 267 267 267 267 267 267 267 266 267 267 267 267 267 267 267 266 266 265 265 265 265 264 264 264 264 264 264 265 265 265 267 272 279 280 280 280 280 279 278 277 275 272 268 265 265 265 265 265 265 265
278 277 277 276 275 274 272 271 270 270 271 271 271 270 270 271 271 273 272 270 268 267 267 266 266 266 265 265 264 264 263 262 261 260 260 259 259 259 259 260 260 260 260 260 260 262 263 264 265 265 265 266 267 267 267 267 267 266 266 266 266 267 267 266 266 267 267 267 267 266 266 266 265 265 265 266 266 265 264 264 264 265 265 268 273 279 280 280 280 280 279 278 277 275 271 267 264 264 264 264 265 265 265
278 277 277 276 275 274 272 271 270 270 270 270 270 270 271 271 271 270 268 267 267 266 266 266 266 266 265 265 264 263 263 262 261 260 259 259 258 258 259 259 260 261 260 261 261 262 263 264 264 264 265 265 266 267 267 267 267 266 266 266 267 268 267 266 265 265 266 266 265 265 265 265 266 267 265 264 263 263 263 263 264 265 264 268 275 279 280 280 280 280 279 278 276 275 269 266 264 264 264 264 264 264 265
Wind_Speed
11 11 12 12 12 13 12 12 12 12 11 11 11 12 13 14 14 14 15 15 15 15 14 15 15 14 13 12 11 10 9 9 8 8 8 8 8 8 8 7 6 6 6 6 6 6 7 7 6 6 6 7 7 7 7 9 11 12 12 13 13 11 13 13 13 13 14 14 12 11 10 9 8 8 9 9 10 10 11 10 9 8 8 7 6 4 3 1 1 3 3 3 3 3 4 4 4 2 2 2 3 3 3
11 11 11 11 12 12 11 11 11 12 11 11 11 12 13 13 13 14 15 15 15 15 16 16 16 14 14 13 12 10 10 9 8 9 8 8 8 8 8 7 7 6 6 6 6 6 7 7 6 6 6 6 7 7 7 9 11 12 12 12 12 12 14 14 13 12 14 13 11 11 11 10 9 8 8 9 9 9 10 10 9 8 7 7 7 7 7 6 5 3 1 2 3 3 3 4 5 4 2 1 2 3 3
10 11 11 11 11 11 11 11 12 13 12 12 12 13 13 13 14 15 14 14 14 14 16 16 16 15 14 13 12 11 11 9 8 9 8 7 7 7 7 7 6 6 6 5 5 6 7 7 6 6 6 7 7 7 8 9 11 12 12 12 12 13 14 14 13 11 13 12 11 11 10 10 9 8 8 8 9 9 10 10 8 8 7 7 7 7 7 7 7 8 6 3 1 3 2 2 3 4 3 2 2 3 4
10 11 11 11 11 11 12 12 12 14 14 13 13 14 13 14 14 14 14 14 14 14 15 15 15 15 14 13 12 12 12 10 9 8 7 7 7 7 8 7 7 7 7 6 5 5 6 6 6 6 6 6 7 7 7 9 10 12 11 11 12 14 15 13 12 13 14 13 11 10 10 10 9 10 9 8 8 8 10 9 8 8 8 8 8 8 9 9 8 7 9 8 5 1 1 2 2 3 2 2 2 3 3
10 10 11 11 11 11 12 12 12 13 13 13 13 13 13 13 13 12 13 13 13 14 14 14 14 14 14 13 11 11 11 12 11 8 8 7 7 7 8 7 6 7 7 6 4 3 4 5 5 5 5 6 7 8 7 8 9 11 12 12 13 14 15 13 12 14 15 14 12 10 11 11 10 10 9 8 8 8 9 9 9 9 8 7 8 7 9 8 7 6 7 8 7 5 1 1 2 2 2 2 2 3 2
11 11 11 11 11 11 11 12 12 13 12 11 11 12 12 12 12 12 12 12 12 12 13 13 13 13 13 12 11 10 11 13 13 9 9 9 8 8 8 8 8 8 7 6 5 4 4 5 5 5 5 7 8 8 8 8 9 11 12 12 13 15 15 13 12 14 16 15 13 10 11 12 12 11 9 8 8 7 8 9 9 8 7 7 7 7 8 7 7 6 5 6 6 6 4 1 1 3 2 2 2 3 2
11 12 11 11 11 12 12 12 12 13 12 11 10 11 12 12 12 12 11 11 11 11 12 12 13 13 13 12 11 11 11 13 14 11 11 10 10 10 9 8 8 8 7 6 5 4 5 6 6 6 6 7 8 9 9 9 9 10 10 11 12 14 15 14 13 14 16 16 14 11 12 13 13 13 11 9 8 7 8 8 8 8 7 6 6 7 8 8 7 7 6 5 5 5 6 4 1 3 3 3 2 2 2
11 12 11 12 12 12 12 12 12 11 12 11 10 11 11 11 12 11 10 10 10 11 11 11 12 12 12 12 11 11 11 13 14 12 10 10 10 9 8 7 7 7 6 5 4 4 6 6 6 6 6 7 7 9 9 9 9 8 8 10 12 14 15 14 14 14 16 16 15 12 13 14 14 13 12 10 9 8 9 9 8 8 7 6 6 6 7 7 7 7 7 6 6 5 5 5 4 1 3 3 3 2 3
11 11 11 12 12 11 11 11 11 10 11 11 11 11 11 11 11 10 9 9 9 10 10 10 10 10 10 10 10 10 11 12 12 11 10 9 8 7 7 6 6 6 5 5 5 5 5 5 6 6 7 7 7 8 9 9 8 8 8 9 11 14 14 14 14 14 16 17 16 15 13 13 14 13 13 13 12 9 9 9 8 8 7 7 6 6 6 7 7 7 8 8 8 7 6 6 6 4 1 2 3 3 2
10 11 11 11 10 9 9 9 10 10 10 11 11 11 10 10 10 9 9 9 9 9 9 9 9 9 8 8 8 9 10 11 11 11 9 8 8 7 7 7 7 7 7 6 6 6 6 6 7 8 8 8 8 7 8 8 8 8 8 9 10 13 14 14 14 14 15 16 16 16 13 13 13 14 15 14 14 11 9 9 9 8 7 7 7 6 6 7 7 8 9 9 9 9 6 5 6 7 4 1 2 3 2
9 10 10 10 9 7 8 8 9 10 10 10 11 10 10 9 9 8 8 8 9 9 9 9 8 8 8 7 7 8 8 9 11 11 9 8 7 7 7 8 8 7 7 7 7 7 7 6 6 7 7 7 8 7 7 7 7 7 8 8 9 11 13 14 14 14 15 16 15 16 14 13 13 14 15 15 15 13 10 9 8 8 8 7 7 7 7 7 8 9 10 10 10 9 7 6 7 8 6 4 1 4 4
8 9 10 11 10 9 9 9 9 9 10 10 10 10 10 9 8 8 8 8 9 9 8 8 7 7 7 7 7 7 8 9 9 10 8 7 7 7 7 8 8 7 7 7 7 6 6 6 6 6 7 7 7 7 6 6 7 7 7 7 8 9 12 13 13 12 15 15 15 16 15 14 13 14 14 15 15 13 11 10 9 8 8 8 7 7 8 9 8 8 9 10 10 10 8 8 7 7 8 6 3 5 5
8 9 9 10 10 10 10 10 9 9 9 10 10 9 9 9 8 9 8 8 9 9 8 8 7 7 8 7 7 6 7 7 8 8 8 7 7 6 7 7 8 8 8 7 7 6 6 6 7 8 7 7 6 6 6 7 7 7 7 7 7 8 10 12 12 11 13 15 16 16 16 15 14 13 14 15 15 13 12 11 10 9 9 8 8 8 9 9 8 8 8 10 11 11 10 9 8 7 8 8 6 4 5
8 8 9 9 10 10 9 9 9 9 8 8 8 8 8 8 9 9 8 8 8 8 9 8 8 7 8 8 8 5 6 7 7 7 8 7 6 6 7 7 7 8 8 7 6 6 6 7 7 7 7 7 7 6 7 7 7 7 7 7 7 7 8 10 11 12 13 14 16 15 16 16 15 13 13 14 15 14 12 11 10 10 10 9 8 8 8 9 9 9 9 10 11 11 11 10 9 8 8 8 7 5 5
7 8 8 9 9 9 8 8 8 8 8 8 7 7 8 8 8 8 8 8 8 8 8 8 8 8 7 8 8 6 6 7 7 6 6 7 7 6 6 6 6 6 6 6 6 6 7 7 6 6 7 7 7 7 7 7 7 8 7 7 7 7 8 9 10 12 13 15 16 15 17 17 16 14 14 15 16 14 13 12 12 10 10 9 8 9 9 10 11 12 11 11 11 12 11 10 9 9 8 8 7 6 5
7 7 7 8 8 7 7 7 7 8 8 7 7 7 8 8 8 8 8 8 8 8 8 9 9 8 7 7 7 6 6 7 7 6 6 6 7 7 6 5 5 5 6 6 6 6 7 6 5 5 6 7 7 6 7 7 8 8 8 7 7 7 7 8 9 10 12 14 15 15 17 17 17 16 15 15 15 15 15 14 14 11 11 10 10 11 11 12 13 14 14 14 14 13 12 12 11 10 9 8 8 8 7
6 6 7 7 7 6 6 6 7 7 7 7 7 7 7 8 8 7 7 8 8 8 8 9 10 8 7 7 7 6 6 6 6 6 6 6 6 6 5 5 5 5 6 6 6 6 6 6 5 5 5 6 6 6 6 7 8 9 7 7 7 7 7 7 8 8 10 12 14 15 16 16 16 16 15 14 14 15 15 14 13 12 11 11 11 13 13 13 13 13 14 14 14 14 13 13 13 12 10 8 8 9 8
5 6 6 6 6 6 6 6 6 7 7 7 7 7 7 8 8 8 8 8 8 9 8 9 9 8 7 7 7 7 7 6 6 6 7 6 6 6 5 5 5 6 6 6 6 6 6 6 5 5 5 6 6 6 6 7 7 8 7 7 7 6 7 7 7 8 8 9 11 14 15 15 15 15 14 14 14 15 13 12 12 13 12 12 12 13 13 12 11 11 12 12 12 13 13 14 14 14 10 9 8 9 10
5 5 5 6 6 5 5 5 6 6 6 7 7 7 8 8 8 8 8 8 9 9 8 8 8 8 7 7 7 7 7 7 6 7 7 7 7 6 5 5 5 6 6 6 7 7 7 6 6 5 6 6 6 7 7 7 7 7 7 7 6 6 6 7 7 7 7 8 9 12 13 14 13 13 13 13 14 14 12 11 11 12 12 12 12 11 11 10 10 9 10 10 10 11 12 13 14 15 12 10 9 10 10
5 5 5 5 5 5 4 5 6 6 6 6 7 8 8 8 8 8 8 9 9 9 8 8 8 8 8 8 8 7 7 7 7 7 7 7 7 7 7 6 6 6 7 7 6 6 6 6 6 6 6 6 6 6 7 7 7 7 7 6 6 6 6 6 6 7 7 7 8 10 12 13 12 10 12 13 13 13 11 11 11 11 12 11 10 10 10 11 11 9 9 9 9 10 10 11 12 13 12 11 10 9 9
5 5 5 5 5 5 5 6 6 6 6 7 7 7 8 8 9 9 8 8 8 9 8 8 8 8 8 8 8 8 7 7 7 7 7 7 8 8 7 7 7 7 7 6 6 6 6 6 6 5 5 5 5 5 6 6 6 6 6 6 6 6 6 6 6 7 7 7 8 9 11 12 11 10 11 11 12 11 10 10 10 11 11 11 11 11 12 12 12 10 9 9 9 10 11 11 11 12 12 12 11 8 8
5 5 6 6 6 6 6 6 6 7 7 7 7 7 7 8 8 8 8 8 8 8 8 8 8 8 8 8 8 7 7 7 7 7 7 7 8 8 7 7 7 7 6 6 6 6 6 6 5 5 5 5 5 5 5 5 5 6 6 6 7 7 6 6 6 7 7 7 8 9 11 11 10 9 10 11 11 10 10 9 10 11 12 12 12 11 12 13 12 10 9 9 9 11 11 11 12 12 11 10 10 10 9
5 6 6 6 6 6 6 6 6 7 7 7 7 7 7 7 8 8 8 7 7 7 8 7 7 7 7 7 7 7 7 7 7 7 7 7 7 7 6 6 6 6 6 6 5 5 5 5 5 5 5 5 5 5 5 5 5 6 6 6 6 6 6 6 7 7 7 8 8 9 10 10 9 9 10 11 11 11 11 11 11 12 13 13 13 13 12 13 13 11 9 8 9 10 10 12 12 11 9 10 11 11 11
6 6 6 6 6 6 6 6 6 7 6 6 6 6 7 7 8 8 7 7 7 7 8 7 7 7 6 7 7 7 7 7 7 7 7 7 6 6 6 6 6 6 5 5 5 5 5 5 5 5 5 5 5 5 5 5 5 6 6 6 6 6 6 6 6 6 7 7 7 8 9 9 9 9 11 11 11 11 12 13 13 14 14 13 12 12 12 12 12 12 9 8 8 10 11 11 10 9 9 10 11 10 11
6 6 6 5 5 6 6 6 7 7 7 7 6 7 7 7 7 7 7 7 7 8 8 7 7 6 6 6 7 7 7 7 7 7 7 6 6 5 6 6 6 6 6 5 5 5 5 5 5 5 5 5 5 5 6 6 6 6 6 6 6 6 5 5 6 6 6 7 7 8 9 9 9 10 11 11 12 12 12 13 14 14 13 12 11 11 11 11 12 11 10 8 8 9 10 10 9 8 9 10 10 9 10
6 6 6 5 5 5 6 6 7 7 7 7 7 7 7 6 6 6 6 7 7 8 7 6 5 5 5 6 6 6 6 7 7 7 6 5 5 5 6 6 6 6 6 6 6 5 5 5 4 5 5 5 5 5 6 6 6 6 6 6 6 6 6 6 5 5 6 7 8 9 10 10 10 10 11 11 12 13 12 13 13 12 12 12 12 12 11 11 10 11 10 9 8 9 9 9 9 9 9 10 10 10 10
6 6 6 6 5 5 6 6 7 7 7 7 7 6 6 6 6 6 6 6 7 7 7 5 4 4 4 5 5 6 6 6 6 6 6 5 5 5 5 6 6 6 6 6 6 6 5 5 4 5 5 5 5 5 5 5 6 6 6 6 6 7 6 6 6 5 6 8 9 10 10 10 10 10 11 11 11 12 12 12 12 11 12 12 12 12 12 10 10 11 10 9 8 8 9 9 9 9 9 10 11 12 10
7 7 6 6 6 6 6 6 7 7 7 7 7 7 6 6 6 5 4 5 6 7 6 5 4 4 4 4 5 6 6 6 6 6 5 5 5 5 5 6 6 6 6 6 6 6 6 5 5 5 5 5 5 5 5 5 5 5 5 6 6 6 6 6 6 6 7 8 10 10 10 10 10 11 11 11 11 11 12 13 12 12 12 13 13 12 11 10 10 10 9 9 8 8 9 9 9 10 10 10 11 12 9
6 6 6 6 6 7 6 6 6 7 6 6 6 6 6 6 5 4 3 3 4 5 5 5 5 4 4 5 5 6 6 6 5 5 6 5 5 6 5 5 6 6 6 6 6 6 6 6 5 5 5 5 5 4 4 4 5 5 5 5 5 6 6 7 7 7 7 8 9 9 10 10 11 11 12 12 12 12 13 14 14 13 13 13 13 12 12 11 11 10 8 8 8 10 10 10 9 8 9 9 9 9 8
5 6 6 7 7 7 7 6 6 6 5 5 5 5 5 5 4 3 2 2 3 3 3 3 3 4 4 5 5 5 5 5 5 5 5 5 6 5 5 5 5 6 6 6 6 6 6 6 5 5 5 5 5 4 4 4 4 4 4 5 5 5 6 6 7 7 7 7 8 9 10 11 11 12 12 12 12 13 13 14 14 14 14 13 12 12 12 12 11 10 8 8 8 9 9 9 9 9 9 8 8 7 8
6 6 6 7 7 7 7 7 7 6 5 5 5 4 4 4 4 3 3 3 3 2 2 2 2 2 3 3 3 4 4 4 4 5 4 5 5 4 4 5 5 5 5 6 6 6 6 6 5 5 5 5 4 4 4 4 4 4 4 5 5 5 6 6 7 8 8 8 8 9 9 10 10 11 11 11 12 12 12 13 14 14 14 13 12 13 13 12 11 10 8 8 8 8 9 10 10 10 9 8 8 7 8
6 6 6 6 6 6 6 6 6 5 4 4 4 4 4 4 4 3 3 3 2 2 2 2 2 1 2 2 2 2 3 3 4 4 4 4 4 4 3 4 4 4 5 5 6 6 6 6 5 5 5 5 5 4 5 5 5 4 4 5 5 5 5 6 6 7 8 8 8 8 9 9 9 10 10 11 12 11 11 12 13 13 13 13 13 13 13 12 11 10 8 7 8 7 7 9 10 10 9 8 8 8 7
6 6 6 6 6 5 5 5 6 6 5 4 4 3 3 3 3 2 2 2 2 3 3 2 2 2 2 2 2 3 3 4 5 5 5 5 5 4 3 3 4 4 5 5 5 5 6 6 5 5 5 5 5 5 5 6 5 5 5 5 5 5 5 5 6 6 7 8 8 8 8 8 9 9 10 10 10 10 11 12 12 12 13 13 13 13 13 12 11 9 8 8 7 7 7 8 10 11 10 10 10 9 8
6 6 6 6 5 5 5 5 5 6 5 5 4 4 3 3 2 2 2 2 2 2 2 2 2 2 3 3 3 4 4 5 5 5 5 5 5 4 4 4 4 5 5 5 5 5 5 5 5 5 5 5 5 5 6 6 6 5 5 5 4 4 5 5 5 5 7 7 8 8 8 8 8 8 9 9 9 10 11 11 11 11 12 12 12 12 13 13 12 9 8 8 8 7 7 8 10 11 12 12 11 10 9
7 6 5 5 6 6 6 5 5 6 5 5 4 4 3 2 2 1 2 2 2 2 2 2 2 2 3 3 3 4 4 4 4 4 4 4 4 4 5 5 5 5 5 5 5 6 6 6 5 5 5 5 6 6 6 6 6 6 5 5 4 3 4 4 4 5 6 7 7 8 7 7 7 7 7 8 8 9 9 10 10 10 11 11 11 11 11 12 11 10 9 9 9 9 9 10 11 12 12 12 11 9 9
6 6 5 5 6 7 6 5 5 4 4 4 3 3 2 2 1 1 1 2 2 2 2 2 2 2 2 2 3 3 3 4 4 4 4 4 4 4 5 5 5 5 5 5 5 5 5 6 5 5 5 5 5 6 6 6 6 6 6 5 4 3 3 4 4 4 5 6 6 6 6 6 6 6 6 7 8 8 8 9 9 10 10 11 11 11 10 10 10 9 10 10 11 10 10 10 11 11 12 12 11 9 9
6 6 6 5 6 6 5 4 4 3 3 3 3 3 2 2 2 1 1 1 2 2 2 2 2 2 2 2 2 3 3 3 3 3 3 3 3 4 5 5 5 5 5 5 5 5 5 5 5 5 5 5 5 5 6 6 6 5 5 5 4 4 3 3 3 4 4 5 5 5 5 5 5 5 6 6 7 7 7 8 8 9 10 10 11 10 10 9 9 9 10 10 11 10 9 9 10 11 11 11 11 11 10
6 7 6 6 6 6 5 4 4 3 3 3 3 3 2 2 2 1 0 1 1 2 2 2 2 2 2 2 2 2 3 3 3 3 3 3 3 4 5 5 5 4 5 5 5 5 5 6 6 5 5 5 5 5 5 5 5 5 5 5 5 4 4 3 3 3 3 3 4 4 4 4 5 5 5 5 6 6 7 7 7 8 9 10 10 10 9 9 9 10 10 10 10 10 9 9 10 11 11 11 11 11 12
6 6 6 6 6 5 4 4 4 4 4 4 3 3 2 2 2 1 1 1 1 2 2 2 2 2 2 2 2 2 2 3 3 3 3 3 4 4 5 5 5 4 5 5 5 5 6 5 5 5 5 5 5 6 5 5 4 5 5 5 5 4 4 3 3 3 3 3 3 3 3 4 4 5 5 5 6 6 6 7 7 7 8 9 9 9 9 9 10 10 10 10 10 10 10 10 10 10 10 11 11 11 11
5 6 6 6 6 5 4 4 4 5 4 4 3 3 2 2 2 2 1 1 1 2 2 2 2 1 1 2 3 3 3 3 3 3 3 4 4 5 5 5 5 5 6 6 6 6 6 5 5 5 4 5 5 6 5 5 4 4 4 4 4 4 4 3 3 3 3 3 3 3 3 4 4 5 5 6 6 6 6 6 6 7 7 8 8 8 8 9 9 10 10 10 10 10 10 10 10 10 10 10 10 10 10
5 5 5 5 5 5 5 5 5 5 5 4 4 3 3 2 2 2 1 1 2 2 2 2 2 1 1 2 2 3 3 3 3 3 4 4 5 5 5 5 5 6 6 6 6 6 6 6 5 5 4 4 5 5 5 5 5 4 4 4 4 4 3 3 2 2 3 3 4 4 4 4 5 5 6 6 6 6 6 6 6 6 6 7 7 8 8 8 9 9 9 9 9 10 10 10 10 10 10 10 10 9 9
4 4 4 4 5 6 6 5 5 5 5 4 4 3 3 3 2 2 2 2 2 2 2 2 1 1 2 2 2 3 3 3 3 3 4 4 5 5 5 5 5 6 6 6 6 6 6 6 6 6 5 5 5 6 6 6 5 5 4 4 4 4 3 3 2 2 2 3 4 4 4 4 5 5 6 6 5 5 5 6 6 5 5 6 6 6 7 8 8 9 8 9 9 9 9 9 10 9 9 9 9 9 9
3 4 4 5 5 5 5 4 4 5 5 5 4 4 3 3 3 3 3 2 2 2 2 2 2 1 2 2 2 3 3 3 3 3 4 4 5 5 5 6 6 6 6 6 6 6 7 7 7 6 6 6 6 6 6 6 5 5 5 4 4 4 3 3 3 2 2 2 3 4 4 4 5 6 6 5 5 5 5 5 5 5 5 5 5 5 6 7 8 8 8 8 8 9 9 9 9 9 9 9 9 9 8
4 4 4 4 4 4 5 5 5 5 5 5 5 5 4 4 4 4 3 2 2 2 2 2 1 1 1 2 2 3 3 3 3 3 4 4 4 4 5 5 6 6 6 6 6 7 7 7 7 7 7 6 6 6 6 6 6 5 5 5 5 4 4 3 3 2 2 3 3 4 4 4 5 5 6 6 5 5 5 5 5 5 5 5 5 5 5 6 7 7 8 8 8 8 9 9 9 8 8 8 8 8 8
4 3 3 4 4 5 5 5 4 4 5 5 5 5 5 5 5 5 4 3 2 2 2 2 1 1 1 1 2 2 3 3 3 3 3 4 4 3 4 5 5 6 6 6 6 6 6 6 7 7 6 6 6 5 6 6 7 6 6 6 5 5 4 3 3 2 3 3 3 4 5 5 5 5 5 5 6 5 5 6 5 5 5 5 5 5 5 5 5 6 7 7 8 8 8 8 8 8 8 8 7 7 7
4 4 4 5 5 5 4 4 4 4 4 4 5 5 5 5 5 5 4 4 3 3 2 2 1 1 1 1 1 2 2 2 3 3 4 4 3 3 4 4 5 5 5 5 5 5 5 6 6 6 6 6 6 6 7 7 7 7 6 6 6 5 4 3 3 3 3 3 4 4 5 5 4 4 5 5 5 5 5 5 5 5 5 5 5 5 4 4 5 5 6 7 7 8 8 8 8 8 8 8 8 7 7
6 5 5 5 5 5 5 4 4 4 4 4 4 4 4 4 4 4 3 3 3 3 3 2 1 0 0 1 1 1 2 2 2 3 3 3 3 3 4 4 4 5 4 4 4 5 5 5 5 5 5 6 6 6 7 7 7 7 7 6 5 5 4 3 3 4 4 4 4 4 4 4 4 4 4 4 4 5 5 5 5 5 5 5 5 4 4 3 4 4 5 6 7 7 8 8 8 8 8 8 8 8 8
6 5 5 5 5 6 5 5 4 4 4 4 4 5 5 4 4 3 3 2 2 2 2 2 1 0 0 0 1 1 1 2 2 2 3 3 3 3 3 4 4 4 4 4 4 4 4 5 6 6 6 6 7 7 8 8 7 7 7 6 5 5 5 4 4 4 4 4 4 4 4 4 4 5 5 5 5 5 5 5 6 5 6 6 6 4 3 2 2 3 5 6 6 6 7 7 8 8 8 8 8 9 9
7 7 7 7 6 6 5 5 4 3 3 4 5 5 5 5 4 4 3 3 2 2 2 1 1 1 1 1 0 1 1 1 1 2 2 3 3 3 3 3 4 4 5 4 4 4 5 5 6 6 7 7 7 8 8 8 7 7 7 6 6 6 6 5 5 4 4 4 4 5 5 5 5 5 6 6 6 6 6 6 6 6 6 6 5 4 4 4 4 3 4 5 6 6 6 6 6 7 7 7 8 8 9
8 8 9 8 7 6 5 4 3 3 4 5 6 6 6 6 6 6 5 5 4 4 3 3 2 2 2 1 0 1 1 1 1 1 2 2 2 3 3 4 4 4 5 5 5 5 5 5 6 6 7 7 7 7 7 7 7 7 6 6 5 6 6 5 5 4 4 4 4 5 5 5 5 5 5 5 6 7 7 6 6 6 5 5 5 5 10 10 9 7 6 5 5 5 5 6 6 6 7 7 7 7 8
8 8 8 7 7 6 5 4 4 5 6 7 7 7 7 8 8 7 7 6 5 5 4 4 3 3 3 2 1 1 1 1 0 0 1 1 2 3 3 4 4 5 5 5 5 5 5 5 6 6 6 6 6 6 7 7 6 6 5 5 5 5 5 5 5 5 5 5 5 4 4 5 5 4 4 5 5 6 6 6 6 6 5 4 4 8 12 13 12 12 11 8 6 5 5 5 6 6 6 6 6 7 7
7 7 7 7 7 6 6 6 6 7 7 8 8 9 9 8 8 7 6 6 5 5 4 4 4 4 4 3 2 2 2 1 1 0 1 2 2 3 3 4 4 4 4 5 5 5 5 5 5 5 5 5 6 7 7 7 6 5 5 4 4 4 4 4 4 4 4 4 4 4 4 4 4 4 4 4 4 4 5 5 6 5 5 4 5 9 12 12 12 13 13 11 8 5 5 5 5 5 6 6 6 6 6
7 7 7 7 7 7 8 8 9 8 8 8 9 9 8 8 7 7 7 6 6 5 4 4 4 5 4 3 3 2 2 2 2 1 2 2 3 3 3 3 4 4 4 4 5 5 5 5 5 5 5 6 6 6 6 6 5 5 5 4 4 3 4 4 4 4 4 4 4 3 4 4 4 4 4 4 4 4 4 4 5 5 5 6 7 11 12 12 12 12 13 12 10 7 5 4 5 5 5 5 5 5 5
7 8 8 9 9 10 10 10 10 9 9 8 8 8 8 8 8 8 8 7 7 6 5 5 5 5 3 3 3 3 2 2 2 2 2 2 3 3 3 4 4 3 3 4 4 5 5 5 5 5 6 6 6 5 5 5 5 5 5 4 4 4 4 4 3 3 3 3 3 3 3 3 3 3 4 4 4 4 4 4 4 4 5 7 9 11 11 11 11 11 12 12 11 9 5 4 3 4 4 4 4 4 4
9 10 10 10 10 10 10 10 9 9 8 8 9 9 9 9 9 8 8 8 8 7 6 6 5 4 4 4 4 3 3 2 2 2 2 2 3 3 3 4 3 3 3 3 4 4 4 5 5 5 5 5 5 4 4 4 5 5 5 5 4 4 3 3 2 2 3 3 3 3 3 3 3 3 3 3 3 3 4 4 4 4 5 7 9 11 9 10 10 10 11 11 11 10 6 4 3 3 3 3 4 4 4
10 9 9 8 8 8 8 9 9 8 8 9 9 9 8 8 9 9 9 9 8 7 7 6 5 5 5 5 5 4 3 3 2 3 3 3 3 3 3 3 3 3 2 3 3 4 4 4 4 4 5 5 5 4 4 4 4 5 4 4 3 2 2 2 2 2 3 3 3 3 3 3 3 3 3 2 2 2 3 3 4 4 5 7 9 10 8 8 9 9 10 10 10 9 6 4 3 2 2 3 3 3 3
8 7 7 6 5 5 6 6 6 6 6 6 5 4 5 6 7 8 8 6 5 5 5 5 5 6 6 6 6 5 4 3 3 3 3 3 3 3 3 3 3 2 2 2 2 3 4 4 4 5 5 5 5 5 4 4 4 3 3 2 2 2 2 2 2 2 2 3 3 3 3 3 3 3 3 2 2 2 3 3 4 5 5 7 8 10 7 7 8 9 9 10 9 9 6 3 2 2 2 2 2 2 2
7 6 7 6 5 4 4 4 4 4 4 4 4 4 5 6 6 6 5 4 4 4 5 6 6 6 6 6 6 5 5 4 3 3 3 3 3 3 3 3 2 2 2 2 2 3 4 4 4 5 5 5 5 5 4 3 3 2 2 2 3 2 2 2 2 1 1 2 2 2 3 3 3 3 3 2 2 2 3 3 4 5 5 6 7 9 7 6 7 8 9 9 9 8 5 3 2 1 1 1 1 2 2
9 8 7 6 6 5 5 4 4 4 4 4 5 6 8 8 7 5 5 5 5 5 5 6 7 6 6 6 6 6 5 5 4 4 3 2 3 3 3 3 2 2 1 1 2 2 3 4 4 4 4 4 5 5 4 4 3 2 2 2 3 2 2 1 1 1 1 1 1 1 1 2 3 3 2 2 2 3 3 3 3 4 4 5 7 8 6 5 6 7 8 8 8 7 4 3 2 1 1 1 1 2 2
Wind_Direction
7 5 3 2 0 358 356 355 355 354 353 353 356 360 1 0 360 1 1 1 1 0 359 358 357 357 355 354 352 352 350 347 346 347 345 343 342 343 337 338 348 8 1 359 1 5 0 360 0 1 0 359 358 360 358 357 356 356 355 354 353 350 348 347 347 348 349 349 349 349 347 344 342 340 340 341 342 343 343 340 336 334 336 340 343 341 336 330 187 189 190 193 191 177 151 135 124 104 84 107 134 146 147
6 3 1 360 358 356 355 355 355 354 353 355 359 3 2 2 2 2 2 3 3 1 360 359 358 356 354 354 355 355 352 350 349 350 346 343 342 343 341 341 346 4 360 357 357 2 358 357 358 359 359 358 357 358 356 356 357 359 358 357 355 352 350 349 350 350 352 352 352 352 350 347 345 342 343 345 347 346 346 344 341 339 343 345 347 347 356 360 357 339 260 193 179 174 158 140 131 126 116 110 122 135 135
3 1 359 358 357 355 356 357 357 357 357 358 1 3 3 4 4 3 2 2 2 2 2 1 358 354 353 354 357 358 354 351 349 348 345 343 343 344 342 340 342 352 353 353 354 359 356 356 356 357 358 357 356 355 354 356 358 360 360 358 356 352 352 352 352 353 354 354 353 354 352 350 348 347 348 349 350 348 347 346 344 341 344 344 344 345 2 13 13 359 347 333 190 168 162 144 132 130 133 135 129 122 127
359 358 357 357 356 355 357 359 0 1 1 1 1 1 3 4 4 2 1 1 2 3 3 1 359 355 354 355 357 358 354 352 350 348 344 342 341 343 340 336 336 343 344 347 352 358 356 355 354 353 355 354 353 352 354 357 359 0 360 358 356 355 355 354 354 355 356 355 355 354 355 354 352 351 351 351 351 349 348 347 345 342 343 345 348 352 6 15 20 13 2 354 343 298 169 142 121 113 121 127 118 104 119
357 357 356 356 355 356 357 360 2 3 2 1 1 2 4 4 3 1 1 1 2 3 2 1 359 356 355 356 357 355 352 353 354 351 345 341 340 342 340 337 334 337 340 341 345 353 355 354 352 349 351 352 352 354 355 357 358 360 359 359 358 357 357 357 356 357 358 358 357 356 357 356 355 354 354 353 351 349 349 348 347 345 344 347 352 358 5 11 17 18 10 360 349 336 328 138 122 95 96 92 85 86 105
355 355 355 355 355 356 357 0 3 3 1 1 2 4 3 2 1 0 360 360 360 1 1 1 360 357 356 357 358 354 352 354 356 353 344 341 341 344 341 337 334 334 336 338 340 346 353 353 350 349 351 353 353 355 356 357 358 358 358 358 360 359 360 359 358 359 360 1 0 359 358 358 358 357 356 353 351 350 350 350 349 347 347 350 355 360 4 7 11 17 15 6 354 342 335 336 129 118 106 90 76 71 79
352 354 354 355 355 357 358 0 2 1 360 1 3 3 0 359 358 358 356 356 357 359 360 360 359 357 356 357 358 355 353 354 355 351 344 344 346 347 342 339 336 334 336 339 344 349 354 354 353 352 353 355 356 356 358 359 358 355 356 358 359 359 0 0 360 360 2 2 2 360 360 0 1 1 359 355 353 353 353 351 349 350 350 352 356 0 4 5 7 13 18 14 2 347 336 331 338 139 132 117 91 65 43
351 352 353 355 357 358 357 357 357 357 360 1 1 359 356 354 353 352 352 352 353 355 357 359 359 356 356 357 358 356 354 354 354 350 347 348 351 350 347 344 341 340 342 344 348 354 359 360 359 356 357 358 358 357 359 358 357 354 356 356 357 358 0 1 1 1 2 3 3 1 1 2 3 4 2 359 356 355 354 354 353 353 353 355 358 2 4 4 4 7 16 19 16 2 350 345 345 143 142 133 117 93 47
352 352 353 354 353 352 350 351 353 356 359 359 358 355 351 349 346 346 345 345 347 350 354 356 357 356 355 356 358 357 355 355 355 353 352 354 356 356 354 351 349 350 355 358 359 1 6 5 3 0 360 358 357 354 357 357 357 356 353 352 354 357 0 2 3 3 3 3 3 3 2 3 4 5 3 2 360 357 358 358 357 356 359 1 3 3 2 0 360 1 11 21 25 20 6 357 354 350 62 123 126 113 66
350 350 351 350 347 344 345 347 351 356 356 355 353 350 346 342 338 337 337 340 343 345 349 353 355 355 354 356 359 357 356 357 358 357 357 359 1 0 357 356 356 358 1 4 4 4 6 6 4 2 358 355 352 352 355 356 354 351 349 349 352 357 0 2 4 5 4 3 2 3 2 3 5 6 5 3 1 0 1 360 359 359 3 5 6 5 3 1 1 3 9 17 23 22 14 6 6 8 4 28 123 114 91
348 349 350 349 346 343 345 348 351 353 351 349 347 344 339 335 332 332 335 337 340 343 346 349 352 352 353 358 0 358 357 358 360 1 1 2 3 4 1 0 1 2 4 5 5 4 5 5 4 358 353 349 348 348 352 351 348 346 348 350 353 357 0 2 4 6 6 4 3 2 2 3 4 5 5 4 4 3 2 2 1 2 4 6 8 8 8 8 7 7 10 14 17 19 21 20 17 13 357 352 51 97 91
349 350 351 350 348 345 347 348 348 346 345 343 340 337 334 332 330 330 332 335 339 341 341 344 348 351 354 358 0 359 358 359 1 4 3 3 4 5 3 3 3 3 4 6 6 5 6 4 358 350 346 345 345 344 345 344 345 347 351 352 354 356 360 3 5 7 6 5 3 1 2 3 4 6 6 6 5 4 3 3 4 4 5 6 9 12 13 12 10 9 11 13 15 21 29 32 28 18 6 9 41 83 76
350 349 349 348 347 345 344 342 339 337 336 334 332 331 332 331 328 326 329 333 336 338 338 340 345 349 353 357 359 360 358 359 2 5 4 4 4 4 1 2 3 3 7 9 11 9 8 0 353 348 347 346 346 343 342 344 347 351 352 353 355 357 360 3 6 8 7 5 3 1 2 3 5 7 7 7 6 4 4 4 6 8 8 8 11 14 14 12 9 9 11 14 19 26 33 37 36 29 22 24 33 54 57
345 345 345 344 343 340 338 334 330 327 325 324 325 329 331 329 327 325 328 331 334 336 337 340 343 346 350 353 355 355 356 358 2 5 4 4 3 3 1 1 3 4 8 11 13 10 7 360 352 349 348 348 347 343 345 347 349 352 353 355 358 359 0 3 6 8 8 6 4 2 3 4 6 8 7 7 7 6 5 6 7 10 11 11 11 14 13 12 11 12 13 15 18 25 33 38 39 36 32 31 33 39 47
340 340 340 338 336 333 330 325 320 316 316 319 324 329 328 325 322 321 324 327 331 336 338 341 342 345 346 349 350 349 353 358 1 2 1 1 2 2 0 0 1 4 7 9 9 9 8 2 354 348 348 349 349 347 347 349 352 353 356 358 0 0 2 3 6 8 9 8 5 3 3 5 8 10 8 8 8 8 8 8 9 12 13 11 10 11 11 12 14 16 17 17 18 23 30 35 37 37 36 34 33 33 45
334 334 333 330 326 323 319 314 310 309 312 316 320 323 322 319 317 317 323 328 334 339 341 343 344 345 345 346 346 345 348 355 358 358 357 358 360 0 359 358 358 1 3 4 4 7 6 1 354 348 349 351 352 351 351 352 354 355 357 359 1 2 3 4 5 7 8 8 6 4 4 6 8 10 9 9 9 10 10 10 10 13 13 11 9 8 9 12 15 17 19 20 21 24 29 33 36 37 37 35 32 33 41
325 327 324 319 314 309 306 305 305 306 309 312 316 320 319 318 318 322 330 335 339 342 344 344 345 344 344 344 344 342 346 351 355 354 355 355 356 355 355 354 354 355 359 360 360 360 359 355 350 350 353 355 356 356 355 355 356 357 358 360 2 4 4 5 5 6 6 7 6 4 3 5 7 10 10 10 10 10 11 11 11 13 13 11 9 8 10 12 14 16 17 19 21 24 29 33 36 38 37 34 31 32 37
320 318 312 306 300 297 299 301 302 303 306 312 318 323 322 322 324 330 336 339 341 343 344 343 342 340 341 342 342 344 347 351 354 357 356 355 354 355 355 353 351 350 355 356 356 354 351 349 348 351 356 358 359 359 358 359 359 358 358 360 1 3 4 6 6 5 4 5 5 5 4 4 6 9 10 10 10 11 12 12 12 13 14 12 10 10 11 12 13 15 16 17 18 21 28 33 36 37 35 32 29 31 34
313 308 299 293 290 289 295 299 300 302 310 317 323 327 328 329 331 334 339 341 342 341 342 341 339 337 339 342 344 344 347 352 357 360 358 356 355 358 357 354 351 350 354 355 355 352 349 349 350 354 357 358 359 359 1 1 0 359 359 359 360 0 5 7 8 6 5 5 5 5 5 4 5 8 10 10 10 11 12 13 13 13 14 13 12 12 11 11 12 14 16 17 17 19 27 32 35 34 33 29 27 30 33
308 301 295 292 291 292 299 302 304 308 314 321 327 331 332 333 333 335 339 341 340 338 340 340 339 337 340 343 345 344 347 353 359 2 359 358 358 360 358 355 353 354 355 356 355 352 352 353 354 356 358 358 358 359 1 2 1 359 358 357 358 1 6 8 8 8 7 6 6 6 5 5 5 8 10 10 11 12 13 13 13 13 13 13 13 12 12 12 13 16 19 19 20 21 27 31 33 32 31 29 27 30 32
299 295 294 294 297 302 308 309 310 312 318 323 328 331 331 331 331 334 337 338 337 335 338 341 341 339 341 343 345 345 347 354 360 2 360 360 1 3 360 357 356 356 357 356 355 355 357 357 356 356 358 358 358 359 0 1 1 0 359 358 360 3 5 7 8 11 9 8 8 7 5 5 6 8 10 11 13 14 14 15 14 14 12 11 11 12 13 14 15 18 20 22 24 26 29 31 31 31 31 29 28 29 32
288 286 286 289 293 301 305 307 309 313 317 321 324 325 325 326 327 330 333 335 335 334 337 341 343 341 339 341 344 344 348 355 1 2 1 2 4 3 360 358 357 357 356 356 356 358 359 359 358 358 360 1 1 2 2 3 3 2 1 2 2 3 3 5 8 10 9 8 8 6 4 5 8 10 12 13 14 16 16 15 15 14 11 10 10 10 12 14 17 19 21 24 26 27 30 31 31 31 30 29 29 31 33
279 278 279 282 287 293 296 300 303 308 311 314 317 319 321 322 324 327 331 333 335 335 337 341 344 341 337 339 343 345 351 358 3 3 4 4 4 2 0 360 360 360 359 358 358 1 1 1 2 3 4 5 5 6 6 6 6 6 6 6 5 2 4 7 9 8 7 8 8 4 3 6 10 13 13 15 17 18 18 18 17 15 12 11 9 9 12 15 18 21 22 24 27 28 30 30 30 30 29 28 29 33 35
272 273 275 278 283 287 291 294 297 299 302 306 310 313 317 319 321 323 327 330 333 334 338 342 344 341 338 340 344 348 355 0 4 5 6 4 2 1 2 3 4 4 2 2 2 2 2 4 7 8 8 8 9 10 10 10 10 10 10 10 8 5 6 9 10 9 8 8 6 2 4 8 12 14 16 18 20 21 21 21 20 18 15 12 9 10 14 18 21 23 24 25 28 30 31 30 29 28 26 26 28 33 34
266 269 273 275 280 285 287 289 291 292 296 299 304 307 311 314 317 319 325 331 335 338 339 341 342 342 341 342 346 352 357 1 5 8 7 5 3 2 4 6 7 8 8 8 7 5 4 7 10 12 10 10 12 14 14 14 13 13 13 12 11 8 9 10 11 11 10 8 5 3 7 10 13 16 18 21 24 24 24 23 22 21 17 14 11 12 16 21 24 26 27 28 29 30 30 29 28 27 26 27 29 32 33
264 268 270 272 274 280 285 287 288 288 291 294 299 303 308 311 313 318 326 333 337 337 335 335 337 341 340 341 345 352 358 3 6 8 7 4 2 3 6 8 10 11 12 12 11 9 7 9 12 13 11 12 14 18 19 18 16 17 17 16 14 12 12 12 12 13 11 8 7 7 10 13 15 18 21 24 26 28 27 26 25 24 20 17 15 15 18 22 26 27 29 30 30 28 28 28 27 26 26 28 31 33 33
271 273 273 273 275 278 282 285 287 288 289 292 296 301 305 308 311 315 328 333 334 330 329 329 332 337 338 341 345 353 360 4 5 4 4 3 2 4 9 11 12 12 11 12 13 12 10 11 13 16 15 14 16 20 21 21 20 21 21 19 18 17 15 14 14 15 14 13 12 12 14 16 19 21 23 25 28 30 29 29 27 26 22 20 18 18 20 24 27 29 32 33 32 28 27 27 25 23 25 29 32 33 32
270 277 282 285 285 281 277 279 283 288 291 294 297 300 302 303 305 310 326 331 328 324 325 328 331 336 340 347 354 359 1 1 2 2 3 3 5 10 12 12 11 11 11 12 14 15 14 14 16 18 16 16 17 20 23 24 24 25 24 23 22 20 18 17 17 16 16 16 16 16 18 19 21 23 25 27 29 30 29 29 29 27 24 23 21 21 23 25 30 32 35 36 35 31 28 27 25 21 24 29 33 32 32
264 276 285 289 288 283 276 274 275 280 286 291 295 297 298 299 299 303 316 321 318 315 319 324 331 338 347 355 359 360 358 357 359 2 3 5 9 13 13 12 10 10 11 13 14 15 14 15 16 17 16 16 18 21 24 27 30 30 28 26 25 23 22 22 21 18 18 18 18 19 20 22 24 26 27 29 30 30 29 29 29 28 27 25 24 23 25 28 32 35 39 40 38 35 33 29 25 21 24 30 34 34 35
265 270 274 277 280 281 280 277 273 268 270 273 279 285 291 293 295 300 309 307 303 297 300 310 323 336 352 358 358 353 352 354 357 1 4 7 10 12 12 11 9 10 11 11 12 13 12 12 14 15 15 17 19 21 24 29 33 34 31 28 26 27 26 24 22 20 21 20 20 20 22 24 25 27 28 29 30 30 29 29 29 29 29 27 26 25 27 29 33 36 40 41 39 37 34 30 26 23 28 32 36 38 38
264 263 264 267 271 275 278 278 275 266 257 254 257 264 273 278 284 297 305 303 295 288 282 282 302 334 349 352 347 342 344 349 354 359 3 7 10 10 11 11 11 11 9 8 8 9 9 10 11 12 15 17 20 23 25 29 33 36 33 31 30 31 28 25 23 23 23 22 22 22 24 26 27 28 29 30 30 30 29 29 29 30 30 29 28 28 29 31 34 37 41 42 41 40 38 33 29 28 32 36 40 42 42
263 262 261 260 262 266 271 276 279 279 272 264 258 255 258 266 278 294 303 309 315 318 310 301 295 311 315 313 315 324 337 347 354 359 3 6 8 7 8 9 11 10 9 7 6 4 6 8 9 9 13 17 21 26 25 26 27 31 33 33 33 34 31 28 26 25 23 23 23 24 26 27 28 29 30 30 31 31 30 30 30 30 31 31 31 30 31 32 35 39 42 43 42 42 40 36 32 33 37 41 44 46 44
261 258 257 256 256 259 264 271 278 285 287 286 282 275 274 279 288 304 319 331 335 333 328 323 316 307 302 303 313 333 351 358 2 5 4 2 360 360 3 6 9 11 11 7 4 1 4 4 5 7 13 19 23 25 22 19 19 22 27 31 35 38 36 33 30 27 23 23 24 25 26 27 29 30 31 31 31 32 32 31 31 31 31 32 33 33 33 34 36 39 42 43 42 42 42 37 35 36 40 44 46 47 45
255 251 254 258 260 259 259 262 268 274 279 282 284 287 288 294 306 325 334 332 326 322 324 328 333 333 330 332 343 358 1 1 1 3 360 354 351 355 3 9 12 14 9 4 360 360 1 360 360 5 14 21 23 22 17 13 12 14 17 24 33 40 39 36 33 30 25 24 24 25 27 28 29 31 32 31 31 32 33 33 33 32 32 32 33 34 35 36 37 40 41 41 41 41 39 37 35 36 40 43 45 45 43
254 251 254 261 265 264 259 255 256 261 268 273 277 279 285 293 304 315 314 310 309 315 323 333 342 344 340 344 353 1 355 352 353 357 351 347 347 355 6 13 16 15 6 1 359 360 357 355 356 4 13 19 21 18 13 10 9 10 10 13 21 35 37 37 35 32 28 26 25 25 26 27 29 31 32 32 31 32 32 34 34 35 33 34 34 34 36 37 38 41 41 41 41 41 39 37 35 35 39 41 42 42 40
256 259 259 261 264 267 265 262 259 259 269 277 283 286 293 296 291 273 290 306 316 325 329 332 332 331 329 338 347 352 345 346 348 350 343 342 347 355 7 14 16 10 3 360 359 358 352 353 359 7 11 14 16 14 9 7 6 7 4 1 2 15 29 32 32 31 31 30 28 26 26 27 28 30 32 33 32 31 32 34 36 37 36 36 36 35 37 38 40 41 41 41 40 40 39 37 35 34 37 40 41 40 38
254 260 259 258 260 265 271 275 277 276 282 289 294 299 304 302 297 293 318 327 324 320 321 320 320 318 321 334 346 346 342 342 342 340 335 337 346 358 8 12 11 5 1 360 358 355 353 358 5 10 8 8 9 9 6 4 2 2 357 355 357 8 18 19 19 23 30 31 28 25 24 25 27 30 32 33 34 32 32 33 36 38 39 39 39 38 38 40 42 42 42 41 40 39 38 36 34 33 36 38 39 38 37
247 252 254 256 257 260 267 275 283 285 283 283 284 288 291 293 292 289 245 265 285 300 307 313 317 321 332 339 339 336 331 327 326 325 329 339 352 4 10 8 4 360 2 2 360 355 357 3 8 8 4 3 4 4 3 360 357 355 354 357 2 10 9 3 358 1 16 24 27 24 22 22 24 27 29 32 33 33 32 33 35 38 40 41 41 40 39 40 42 43 43 42 41 39 38 36 35 35 38 39 40 38 38
245 250 253 255 257 259 264 269 274 275 274 272 273 274 276 273 266 244 222 234 264 288 299 306 312 320 332 331 323 317 316 316 318 324 339 352 2 8 7 3 359 359 5 5 1 356 359 5 7 6 1 359 358 356 356 354 352 352 354 358 3 9 4 356 347 346 351 358 7 16 19 20 22 25 28 28 29 29 31 33 35 37 40 42 42 40 39 40 41 42 42 42 42 41 39 38 37 38 40 42 42 42 41
250 252 255 258 261 266 267 266 265 266 268 267 263 259 256 252 249 241 240 252 270 281 290 298 306 314 320 316 314 316 319 320 325 336 354 4 7 6 4 1 1 4 5 3 359 357 2 5 6 2 357 354 353 351 349 349 350 352 353 356 1 4 358 352 350 349 341 337 340 357 14 19 21 24 27 26 24 23 26 29 32 34 38 41 42 40 39 39 40 41 41 41 41 41 39 39 39 40 43 44 45 45 45
253 254 257 261 263 262 257 253 252 255 258 257 252 242 237 234 233 231 235 249 263 272 282 291 298 300 298 301 306 315 319 324 334 349 2 8 8 5 2 2 5 7 3 360 358 360 2 2 1 358 353 350 348 346 344 346 349 350 349 354 358 357 349 348 354 359 343 333 333 345 6 18 23 26 28 26 23 19 19 22 25 27 32 36 39 38 37 37 38 39 39 39 40 40 39 39 39 40 42 44 45 45 46
253 258 258 255 252 248 245 243 241 242 245 245 242 234 226 220 216 213 217 227 245 265 274 276 276 279 288 295 302 310 318 329 344 359 5 8 8 6 4 4 5 5 360 357 356 360 360 358 355 351 349 348 346 343 342 344 347 346 347 349 352 350 344 345 350 354 350 345 343 346 360 16 25 27 28 27 23 18 16 16 16 16 20 27 33 35 36 37 38 38 39 39 39 40 40 39 39 39 40 41 42 42 42
250 251 248 246 245 245 245 241 236 233 236 235 231 224 215 210 208 209 213 221 236 257 262 262 261 268 291 304 311 316 328 341 354 4 4 6 7 9 6 5 3 1 356 354 355 358 357 353 350 347 346 344 342 341 340 341 343 345 344 343 342 343 345 344 343 341 353 1 2 356 4 19 29 30 29 26 23 20 17 15 12 6 6 13 23 29 33 37 39 39 38 38 38 39 39 39 39 38 38 38 38 37 36
241 242 245 248 251 252 249 243 234 229 229 226 221 213 206 204 204 208 212 219 232 250 260 262 262 267 292 306 315 321 333 345 356 4 4 4 6 10 6 4 0 357 353 352 353 354 351 348 345 344 344 342 340 338 339 341 343 344 343 342 341 342 344 344 342 345 4 16 17 10 17 26 32 33 30 28 25 22 21 18 10 360 358 4 13 19 26 32 36 38 38 38 37 37 37 37 37 37 37 36 35 35 32
241 247 254 255 252 249 246 240 232 224 223 221 215 208 203 200 200 203 207 211 220 235 251 260 266 274 292 303 312 320 334 346 355 2 2 2 2 8 6 1 356 352 350 349 348 346 343 342 341 341 340 338 337 339 343 344 344 344 345 346 345 341 340 344 356 14 26 27 24 21 27 30 32 34 33 30 26 24 24 18 9 359 358 2 8 12 17 22 28 33 36 36 35 34 34 33 33 33 33 32 32 32 30
245 250 251 250 247 245 243 238 230 222 221 218 213 207 204 203 201 201 202 203 206 212 220 230 245 275 312 315 317 323 339 353 360 3 1 358 357 2 3 358 352 347 346 343 340 337 337 336 336 336 337 338 340 345 348 348 347 346 348 348 344 338 341 355 18 37 42 41 35 30 31 30 28 29 33 31 28 25 22 16 8 2 1 3 6 7 6 8 15 27 34 35 34 33 31 29 29 27 26 26 25 25 24
238 240 243 245 246 244 241 236 227 220 217 212 207 202 204 207 208 206 204 202 201 204 206 210 217 237 334 322 317 327 348 1 8 5 358 355 353 355 355 352 346 340 337 334 332 330 331 332 334 337 340 344 348 352 353 352 351 351 350 348 346 347 1 19 36 46 50 49 45 40 36 31 26 24 28 28 25 23 18 12 7 7 7 6 5 360 353 352 2 20 32 35 35 33 28 26 25 25 22 20 18 17 17
230 231 237 240 240 238 236 232 223 214 209 201 197 196 200 204 208 213 214 214 214 218 215 211 204 180 180 232 281 327 2 16 16 6 356 351 348 347 345 338 332 326 325 324 325 325 329 335 340 344 348 353 356 357 355 354 353 353 351 352 357 8 22 33 41 49 52 51 47 43 41 35 29 24 21 19 17 18 14 10 7 8 8 5 359 346 343 354 13 27 33 36 36 35 28 25 23 22 20 18 15 13 12
227 226 229 231 233 233 231 227 219 207 199 194 193 195 196 196 198 205 209 211 215 223 227 222 208 180 196 213 244 10 35 38 26 4 349 345 341 336 325 318 315 317 319 320 322 327 334 341 347 352 356 358 358 357 354 353 354 356 356 0 9 20 27 32 37 43 45 45 43 39 37 35 33 28 21 16 12 13 12 9 7 7 6 358 348 336 13 39 58 58 43 38 36 35 30 25 23 22 20 17 14 12 11
227 225 226 228 229 230 227 221 212 202 198 195 194 193 192 193 195 198 200 199 198 200 206 206 199 187 200 204 173 76 68 60 42 3 345 335 325 313 304 303 307 314 317 321 327 336 341 347 353 359 359 358 355 353 353 354 357 359 360 5 14 23 24 26 28 31 32 33 33 31 29 29 30 30 24 17 12 8 6 5 5 3 360 349 343 356 26 39 54 73 66 53 41 35 30 27 24 23 20 18 16 14 12
229 226 227 227 228 227 223 217 210 204 201 198 195 192 192 193 195 196 195 193 191 191 193 191 188 188 198 193 162 123 127 135 134 360 322 306 296 290 294 300 307 313 320 329 336 341 345 351 356 356 354 353 353 354 356 357 358 358 360 7 16 22 18 17 17 21 21 22 23 23 21 19 19 19 18 17 13 6 2 360 358 357 352 341 347 13 28 36 48 67 69 66 55 41 35 31 27 22 18 17 17 15 15
231 228 227 227 226 225 222 218 214 210 205 200 196 194 193 193 193 192 189 187 186 189 189 185 184 190 195 186 160 137 144 155 180 217 245 263 271 280 292 302 309 317 327 335 339 340 348 352 352 347 351 355 358 358 358 356 353 354 360 9 17 18 10 7 8 12 12 13 15 17 18 14 9 4 6 9 9 5 360 355 350 346 342 338 355 20 29 37 47 60 64 64 61 52 43 38 33 24 18 16 16 15 15
230 229 228 227 225 224 222 220 218 214 208 202 197 194 192 190 189 187 181 180 183 191 191 187 186 191 189 171 145 135 150 168 186 212 236 251 266 281 295 304 312 319 327 333 337 343 348 347 345 346 354 357 357 356 353 349 349 355 6 13 15 11 6 4 4 4 2 4 8 13 11 6 360 356 359 360 360 358 355 348 342 337 333 341 359 20 30 38 45 52 55 57 58 58 50 43 37 30 21 17 15 13 12
229 229 228 226 225 223 222 221 219 214 206 200 195 193 191 188 184 180 175 178 185 192 190 188 187 187 167 147 141 153 173 185 192 205 231 252 269 286 297 303 307 312 320 330 338 345 342 340 341 349 351 351 349 348 347 347 352 3 11 14 12 9 9 6 1 354 356 360 2 1 356 352 352 351 355 358 357 354 348 342 335 329 326 334 347 5 24 37 44 49 50 51 54 58 55 48 38 33 24 18 13 9 9
227 226 225 224 222 221 220 219 217 212 203 196 194 195 192 185 178 170 174 182 190 190 188 188 183 167 146 145 157 175 184 190 194 207 230 250 268 285 293 297 300 306 319 332 339 338 335 335 339 342 341 340 340 344 349 355 2 10 13 11 7 4 1 355 352 354 360 356 350 342 344 342 341 339 351 356 356 349 341 333 327 324 324 325 333 347 15 34 45 49 51 52 55 59 59 54 42 34 26 19 11 5 2
225 225 225 224 223 221 220 218 215 210 202 196 193 193 190 179 171 168 178 186 190 185 183 177 164 146 148 159 171 181 186 189 192 204 227 245 266 279 282 287 293 304 320 331 333 331 330 329 330 331 333 335 339 346 356 5 11 13 9 2 353 344 333 330 344 10 3 349 336 334 336 331 325 326 337 344 346 338 328 321 317 319 320 320 324 334 4 30 45 51 54 57 60 65 66 62 50 39 30 19 10 1 356
226 228 227 225 224 222 219 216 213 206 198 191 186 181 173 168 167 171 177 179 175 164 158 150 145 148 160 168 173 177 184 190 198 203 222 242 262 271 273 278 287 299 312 324 328 328 324 321 321 327 332 337 340 347 357 7 11 7 351 337 323 315 320 334 351 7 353 336 327 328 327 321 317 316 323 329 337 336 324 319 317 317 315 313 316 324 351 24 45 54 59 62 66 72 77 76 67 55 39 19 3 354 346
228 229 227 225 223 220 216 213 208 200 189 179 168 153 150 157 164 167 156 141 130 126 133 140 148 161 166 170 172 176 181 188 200 210 219 236 254 266 272 277 284 289 300 313 318 319 313 314 317 326 332 337 340 345 352 359 1 350 332 323 322 322 335 346 353 347 321 306 304 309 313 314 314 316 327 339 345 346 334 324 316 312 307 305 309 317 339 15 45 60 65 68 72 80 85 87 82 71 49 16 355 339 326
228 226 223 221 219 218 216 215 209 196 177 163 153 146 148 156 162 156 132 124 125 131 142 151 157 166 168 169 173 177 179 187 198 212 219 232 249 264 272 276 274 268 278 295 301 301 302 307 314 324 331 337 341 343 345 346 347 342 335 331 329 327 333 337 326 289 253 242 239 237 268 295 306 316 328 339 342 340 332 321 310 302 296 298 304 312 331 7 44 64 71 75 79 85 88 88 79 63 39 11 348 327 315